Location: Solstice Park, West Seattle
(47.5363°N, 122.3905°W)
Time: 08:22:57
(UTC-07:00)

ISS - Pass Details

Date: 20 May 2021
Orbit: 417 x 422 km, 51.6° (Epoch: 18 June)

Event Time Altitude Azimuth Distance (km) Brightness Sun altitude
Rises 21:36:03 0° 260° (W) 2,360 0.7 -7.5°
Reaches altitude 10° 21:38:11 10° 265° (W) 1,498 -0.3 -7.8°
Maximum altitude 21:41:29 54° 344° (NNW) 517 -2.9 -8.2°
Drops below altitude 10° 21:44:48 10° 63° (ENE) 1,505 -1.1 -8.6°
Sets 21:46:57 0° 69° (ENE) 2,372 -0.2 -8.8°
